[Iaude] MPEC E207: 2022 EB6 [a=1.36,e=0.21,i=5.4,H=24.0]

mpec at marsden.cfa.harvard.edu mpec at marsden.cfa.harvard.edu
Mon Mar 14 03:59:25 EDT 2022


M.P.E.C. 2022-E207                               Issued 2022 March 14, 07:58 UT

     The Minor Planet Electronic Circulars contain information on unusual
         minor planets and routine data on comets.  They are published
    on behalf of Division F of the International Astronomical Union by the
          Minor Planet Center, Smithsonian Astrophysical Observatory,
                          Cambridge, MA 02138, U.S.A.

             Prepared using the Tamkin Foundation Computer Network

                              MPC at CFA.HARVARD.EDU
            URL https://www.minorplanetcenter.net/    ISSN 1523-6714

                                    2022 EB6                                    


Observations:
     K22E06B* C2022 03 10.58359314 58 40.333+05 49 02.19         21.82wUEE207F52
     K22E06B  C2022 03 10.59512514 58 42.689+05 48 37.83         22.32wUEE207F52
     K22E06B  C2022 03 10.60672114 58 45.056+05 48 13.23         21.74wUEE207F52
     K22E06B  C2022 03 11.53030015 02 16.606+05 15 10.51         21.46GVEE207F52
     K22E06B  C2022 03 11.53110415 02 16.752+05 15 09.19         21.83GVEE207F52
     K22E06B |C2022 03 12.25144 15 05 01.60 +04 49 32.4          21.4 GVEE207807
     K22E06B |C2022 03 12.25721 15 05 02.82 +04 49 19.7          21.4 GVEE207807
     K22E06B |C2022 03 12.26314 15 05 04.07 +04 49 06.7          21.6 GVEE207807
     K22E06B KC2022 03 12.45507 15 05 45.43 +04 40 50.9          21.4 RqEE207H36
     K22E06B KC2022 03 12.47077 15 05 48.80 +04 40 15.6          21.9 RqEE207H36
     K22E06B KC2022 03 13.37750615 09 18.74 +04 06 01.0          21.55GVEE207I52
     K22E06B KC2022 03 13.38210715 09 19.73 +04 05 50.8          21.46GVEE207I52
     K22E06B KC2022 03 13.38670715 09 20.65 +04 05 40.1          21.50GVEE207I52

Observer details:
807 Cerro Tololo Observatory, La Serena.  Observers T. Linder, R. Holmes, L.
    Horn.  1.00-m f/10.0 astrograph + CCD.
F52 Pan-STARRS 2, Haleakala.  Observers J. Bulger, T. Lowe, A. Schultz, I.
    Smith, K. Chambers, T. Dukes.  Measurers K. Chambers, S. Chastel, T. de
    Boer, J. Fairlamb, H. Gao, M. Huber, C.-C. Lin, E. Magnier, Y.
    Ramanjooloo, R. Wainscoat, R. Weryk.  1.8-m Ritchey-Chretien + CCD.
H36 Sandlot Observatory, Scranton.  Observer G. Hug.  0.56-m reflector + CCD.
I52 Steward Observatory, Mt. Lemmon Station.  Observer A. R. Gibbs.  Measurers
    E. J. Christensen, G. A. Farneth, J. B. Fazekas, D. C. Fuls, A. R. Gibbs,
    A. D. Grauer, H. Groeller, R. A. Kowalski, S. M. Larson, G. J. Leonard, D.
    Rankin, R. L. Seaman, A. Serrano, F. C. Shelly, K. W. Wierzchos.

Orbital elements:
2022 EB6                                                 Earth MOID = 0.0695 AU
Epoch 2022 Jan. 21.0 TT = JDT 2459600.5                 Veres                   
M 314.03454              (2000.0)            P               Q                  
n   0.61958176     Peri.  171.54405     -0.93883589     +0.34141530             
a   1.3627106      Node    28.54702     -0.32119836     -0.82108341             
e   0.2137736      Incl.    5.40034     -0.12417243     -0.45744685             
P   1.59           H   24.04          G   0.15           U   8                  
Residuals in seconds of arc
220310 F52  0.1-  0.0     220312 807  0.1-  0.0     220313 I52  0.0   0.2-
220310 F52  0.0   0.0     220312 807  0.0   0.0     220313 I52  0.3+  0.2+
220310 F52  0.0   0.0     220312 807  0.0   0.1+    220313 I52  0.3-  0.0
220311 F52  0.1+  0.2-    220312 H36  0.6+  0.6-
220311 F52  0.1-  0.3+    220312 H36 (1.9+  0.7-)

Ephemeris:
2022 EB6                 a,e,i = 1.36, 0.21, 5                   q = 1.0714
Date    TT    R. A. (2000) Decl.     Delta      r    Elong.  Phase     V
2022 02 12    13 23 51.8 +15 55 42   0.2327  1.1404   126.3    44.2    22.9
...
2022 02 27    14 15 53.7 +11 26 36   0.1813  1.1079   126.6    45.9    22.3
...
2022 03 07    14 45 13.0 +07 48 25   0.1597  1.0942   126.2    47.0    22.0
...
2022 03 13    15 07 50.4 +04 20 56   0.1462  1.0859   125.9    47.9    21.8
2022 03 14    15 11 39.5 +03 42 26   0.1442  1.0847   125.8    48.0    21.8
2022 03 15    15 15 29.4 +03 02 48   0.1423  1.0836   125.8    48.1    21.8
...
2022 03 21    15 38 41.6 -01 18 25   0.1320  1.0777   125.4    48.9    21.6
...
2022 03 29    16 09 45.6 -08 02 11   0.1219  1.0728   125.0    49.7    21.5
...
2022 04 13    17 04 56.6 -22 08 16   0.1145  1.0730   125.5    49.5    21.3

M. P. C. Staff               (C) Copyright 2022 MPC           M.P.E.C. 2022-E207




More information about the Iaude mailing list